TimeCDT,TemperatureF,Dew PointF,Humidity,Sea Level PressureIn,VisibilityMPH,Wind Direction,Wind SpeedMPH,Gust SpeedMPH,PrecipitationIn,Events,Conditions,WindDirDegrees,DateUTC
12:56 AM,64.0,62.1,93,29.79,10.0,SSW,6.9,-,N/A,,Clear,200,2013-09-10 05:56:00
1:43 AM,62.6,62.6,100,29.81,10.0,Variable,3.5,-,N/A,,Partly Cloudy,0,2013-09-10 06:43:00
1:56 AM,63.0,61.0,93,29.81,10.0,NNE,3.5,-,N/A,,Partly Cloudy,20,2013-09-10 06:56:00
2:56 AM,60.1,57.9,93,29.82,10.0,Calm,Calm,-,N/A,,Clear,0,2013-09-10 07:56:00
3:20 AM,59.0,57.2,94,29.83,1.5,Calm,Calm,-,N/A,,Clear,0,2013-09-10 08:20:00
3:31 AM,59.0,57.2,94,29.83,4.0,WSW,3.5,-,N/A,,Clear,250,2013-09-10 08:31:00
3:56 AM,61.0,59.0,93,29.83,10.0,West,6.9,-,N/A,,Clear,280,2013-09-10 08:56:00
4:56 AM,59.0,57.0,93,29.85,10.0,WNW,8.1,-,N/A,,Clear,290,2013-09-10 09:56:00
5:52 AM,59.0,57.2,94,29.87,10.0,WNW,11.5,-,N/A,,Scattered Clouds,300,2013-09-10 10:52:00
5:56 AM,60.1,57.0,90,29.87,10.0,WNW,11.5,-,N/A,,Mostly Cloudy,290,2013-09-10 10:56:00
6:15 AM,59.0,57.2,94,29.88,5.0,West,9.2,-,N/A,,Overcast,280,2013-09-10 11:15:00
6:38 AM,60.8,57.2,88,29.87,6.0,West,8.1,-,N/A,,Overcast,270,2013-09-10 11:38:00
6:45 AM,60.8,57.2,88,29.87,7.0,West,8.1,-,N/A,,Overcast,260,2013-09-10 11:45:00
6:56 AM,60.1,57.9,93,29.87,7.0,West,6.9,-,N/A,,Overcast,270,2013-09-10 11:56:00
7:14 AM,60.8,57.2,88,29.89,8.0,West,9.2,-,0.01,,Overcast,280,2013-09-10 12:14:00
7:56 AM,61.0,59.0,93,29.89,10.0,WNW,8.1,-,0.01,,Overcast,290,2013-09-10 12:56:00
8:19 AM,62.6,59.0,88,29.90,10.0,WNW,8.1,-,N/A,,Overcast,290,2013-09-10 13:19:00
8:56 AM,63.0,59.0,87,29.90,10.0,WNW,9.2,-,N/A,,Overcast,290,2013-09-10 13:56:00
9:56 AM,63.0,59.0,87,29.93,10.0,NNW,9.2,-,N/A,,Overcast,330,2013-09-10 14:56:00
10:15 AM,62.6,57.2,82,29.94,10.0,NW,15.0,23.0,N/A,,Overcast,310,2013-09-10 15:15:00
10:56 AM,64.0,57.9,80,29.94,10.0,NNW,11.5,-,N/A,,Overcast,340,2013-09-10 15:56:00
11:45 AM,68.0,57.2,68,29.95,10.0,NW,9.2,-,N/A,,Scattered Clouds,320,2013-09-10 16:45:00
11:56 AM,68.0,57.9,70,29.95,10.0,NW,6.9,-,N/A,,Clear,310,2013-09-10 16:56:00
12:56 PM,70.0,57.9,65,29.94,10.0,Variable,3.5,-,N/A,,Clear,0,2013-09-10 17:56:00
1:56 PM,73.9,57.0,55,29.94,10.0,WNW,9.2,-,N/A,,Mostly Cloudy,300,2013-09-10 18:56:00
2:56 PM,75.0,57.0,53,29.94,10.0,WSW,8.1,-,N/A,,Partly Cloudy,240,2013-09-10 19:56:00
3:56 PM,75.9,57.9,54,29.92,10.0,WSW,10.4,20.7,N/A,,Partly Cloudy,250,2013-09-10 20:56:00
4:56 PM,75.9,59.0,56,29.92,10.0,SW,10.4,-,N/A,,Scattered Clouds,230,2013-09-10 21:56:00
5:56 PM,75.9,59.0,56,29.91,10.0,SW,10.4,-,N/A,,Clear,230,2013-09-10 22:56:00
6:56 PM,75.9,60.1,58,29.91,10.0,SW,8.1,-,N/A,,Clear,230,2013-09-10 23:56:00
7:56 PM,72.0,60.1,66,29.92,10.0,SW,5.8,-,N/A,,Clear,230,2013-09-11 00:56:00
8:56 PM,69.1,57.9,68,29.94,10.0,SW,5.8,-,N/A,,Clear,230,2013-09-11 01:56:00
9:56 PM,66.0,55.9,70,29.95,10.0,West,5.8,-,N/A,,Partly Cloudy,280,2013-09-11 02:56:00
10:56 PM,64.0,55.0,73,29.97,10.0,West,6.9,-,N/A,,Clear,270,2013-09-11 03:56:00
11:56 PM,63.0,54.0,72,29.97,10.0,West,6.9,-,N/A,,Clear,280,2013-09-11 04:56:00